EDT,Max TemperatureF,Mean TemperatureF,Min TemperatureF,Max Dew PointF,MeanDew PointF,Min DewpointF,Max Humidity, Mean Humidity, Min Humidity, Max Sea Level PressureIn, Mean Sea Level PressureIn, Min Sea Level PressureIn, Max VisibilityMiles, Mean VisibilityMiles, Min VisibilityMiles, Max Wind SpeedMPH, Mean Wind SpeedMPH, Max Gust SpeedMPH,PrecipitationIn, CloudCover, Events, WindDirDegrees
2013-4-1,38,32,25,29,16,9,80,53,32,30.09,29.95,29.72,10,10,5,22,13,28,0.00,5,Snow,297
2013-4-2,40,32,23,19,14,9,83,52,29,30.25,30.14,30.08,10,10,10,21,7,28,0.00,3,,276
2013-4-3,41,32,23,19,14,10,77,51,27,30.41,30.33,30.24,10,10,10,16,4,24,0.00,1,,308
2013-4-4,55,41,27,23,16,13,67,39,19,30.32,30.12,29.94,10,10,10,13,5,18,0.00,1,,216
2013-4-5,46,39,31,30,20,14,81,47,28,30.18,30.09,29.93,10,10,10,16,5,21,0.00,1,,2
2013-4-6,56,44,31,27,23,16,74,48,25,30.21,30.04,29.72,10,10,10,23,10,30,0.00,5,,150
2013-4-7,59,48,35,46,36,27,82,62,34,30.02,29.82,29.59,10,10,10,23,13,36,0.00,6,Rain,264
2013-4-8,63,48,34,53,39,30,91,80,53,30.02,29.87,29.68,10,8,3,23,9,34,0.00,4,Rain,159
2013-4-9,50,46,41,46,42,40,93,88,79,30.06,29.98,29.87,10,5,2,12,7,17,0.00,8,Rain,69
2013-4-10,43,40,38,40,38,36,93,92,88,29.99,29.94,29.87,10,7,1,16,9,23,0.00,8,Rain,45
2013-4-11,38,37,36,36,35,35,93,92,89,29.98,29.83,29.65,10,6,2,21,12,28,0.00,8,Rain,74
2013-4-12,42,38,34,37,34,32,94,87,68,29.75,29.63,29.54,10,7,1,13,6,21,0.00,8,Rain,247
2013-4-13,40,38,35,36,30,27,92,73,61,29.97,29.84,29.75,10,10,3,20,9,26,0.00,8,Rain-Snow,253
2013-4-14,50,41,32,38,31,27,90,74,58,30.09,30.00,29.88,10,9,1,15,3,24,0.00,5,Rain-Snow,124
2013-4-15,68,55,42,54,45,33,90,71,56,29.92,29.88,29.85,10,10,7,15,10,23,0.00,3,Rain,170
2013-4-16,58,51,44,54,39,31,93,69,39,30.23,30.07,29.87,10,10,5,20,7,20,0.00,5,Rain,293
2013-4-17,58,48,38,44,36,32,90,66,41,30.32,30.22,29.97,10,9,2,22,9,34,0.00,5,Rain,75
2013-4-18,73,58,44,63,53,42,92,86,69,29.98,29.70,29.55,10,9,1,18,10,28,0.00,7,Rain,174
2013-4-19,59,46,32,57,36,28,93,78,61,29.75,29.53,29.38,10,9,2,21,14,36,0.00,8,Rain-Snow,232
2013-4-20,39,34,28,29,21,17,86,59,45,30.43,30.16,29.75,10,10,10,20,12,25,0.00,5,Snow,287
2013-4-21,49,37,25,29,24,18,92,61,41,30.59,30.50,30.43,10,10,10,14,4,20,0.00,0,,140
2013-4-22,62,48,33,34,30,27,91,55,27,30.43,30.30,30.17,10,10,10,9,6,,0.00,0,,144
2013-4-23,55,46,42,41,35,33,76,66,58,30.16,30.09,30.03,10,10,10,12,8,,0.00,0,,153
2013-4-24,44,40,35,30,26,25,70,59,53,30.12,30.06,29.99,10,10,10,15,9,24,0.00,2,,256
2013-4-25,50,42,35,38,30,24,87,66,40,30.34,30.16,30.06,10,10,4,23,6,32,0.00,3,Rain,240
2013-4-26,60,46,31,36,32,28,94,59,35,30.43,30.36,30.31,10,10,10,15,3,21,0.00,0,,177
2013-4-27,68,54,41,39,35,32,76,49,27,30.34,30.24,30.10,10,10,10,14,5,22,0.00,0,,156
2013-4-28,57,54,50,52,45,34,94,75,48,30.09,29.93,29.84,10,8,0,14,5,18,0.00,8,Fog-Rain,112
2013-4-29,71,62,52,54,52,47,95,73,43,29.93,29.89,29.84,10,7,0,8,2,,0.00,6,Fog-Rain,222
2013-4-30,73,64,55,57,53,51,89,74,55,30.04,29.97,29.91,10,8,2,12,4,,0.00,3,Rain,170